| time (UTC) | temp F | wind direction | speed MPH | gust MPH | rain 1hr in | rain 24hr in | rain mn in | humidity % | barometer mb |
| 20260503220506 | 70 | 229 | 3.0 | 9.0 | 0.00 | 0.00 | 0.00 | 31 | 1002.4 |
| 20260503220006 | 70 | 293 | 2.0 | 7.0 | 0.00 | 0.00 | 0.00 | 32 | 1002.4 |
| 20260503214506 | 70 | 307 | 4.0 | 10.0 | 0.00 | 0.00 | 0.00 | 30 | 1002.5 |
| 20260503214006 | 70 | 323 | 3.0 | 8.0 | 0.00 | 0.00 | 0.00 | 31 | 1002.5 |
| 20260503213506 | 70 | 299 | 5.0 | 10.0 | 0.00 | 0.00 | 0.00 | 31 | 1002.5 |
| 20260503213006 | 70 | 244 | 2.0 | 8.0 | 0.00 | 0.00 | 0.00 | 34 | 1002.5 |
| 20260503212506 | 70 | 243 | 3.0 | 7.0 | 0.00 | 0.00 | 0.00 | 31 | 1002.5 |
| 20260503212006 | 70 | 285 | 3.0 | 8.0 | 0.00 | 0.00 | 0.00 | 33 | 1002.6 |
| 20260503211506 | 70 | 253 | 3.0 | 8.0 | 0.00 | 0.00 | 0.00 | 32 | 1002.6 |
| 20260503211006 | 70 | 295 | 2.0 | 9.0 | 0.00 | 0.00 | 0.00 | 32 | 1002.6 |
| 20260503210506 | 70 | 297 | 3.0 | 9.0 | 0.00 | 0.00 | 0.00 | 33 | 1002.7 |
| 20260503210006 | 70 | 309 | 3.0 | 8.0 | 0.00 | 0.00 | 0.00 | 32 | 1002.7 |
| 20260503205506 | 70 | 296 | 5.0 | 10.0 | 0.00 | 0.00 | 0.00 | 35 | 1002.8 |
| 20260503205006 | 70 | 307 | 6.0 | 12.0 | 0.00 | 0.00 | 0.00 | 33 | 1002.9 |
| 20260503204506 | 70 | 232 | 3.0 | 8.0 | 0.00 | 0.00 | 0.00 | 33 | 1002.9 |
| 20260503204006 | 70 | 277 | 4.0 | 9.0 | 0.00 | 0.00 | 0.00 | 35 | 1003.0 |
| 20260503203006 | 70 | 291 | 2.0 | 8.0 | 0.00 | 0.00 | 0.00 | 37 | 1003.0 |
| 20260503202506 | 70 | 301 | 3.0 | 12.0 | 0.00 | 0.00 | 0.00 | 37 | 1003.1 |
| 20260503202006 | 70 | 238 | 2.0 | 8.0 | 0.00 | 0.00 | 0.00 | 38 | 1003.0 |
| 20260503201506 | 70 | 295 | 5.0 | 12.0 | 0.00 | 0.00 | 0.00 | 36 | 1003.0 |
| 20260503201006 | 70 | 299 | 3.0 | 8.0 | 0.00 | 0.00 | 0.00 | 36 | 1003.0 |
| 20260503200506 | 70 | 291 | 2.0 | 8.0 | 0.00 | 0.00 | 0.00 | 36 | 1003.0 |
| 20260503200006 | 70 | 304 | 1.0 | 8.0 | 0.00 | 0.00 | 0.00 | 37 | 1003.0 |
| 20260503195506 | 70 | 266 | 2.0 | 8.0 | 0.00 | 0.00 | 0.00 | 34 | 1003.1 |
| 20260503195006 | 70 | 295 | 5.0 | 10.0 | 0.00 | 0.00 | 0.00 | 33 | 1003.2 |
| 20260503194506 | 70 | 290 | 4.0 | 9.0 | 0.00 | 0.00 | 0.00 | 35 | 1003.1 |
| 20260503194006 | 70 | 307 | 4.0 | 9.0 | 0.00 | 0.00 | 0.00 | 34 | 1003.2 |
| 20260503193506 | 70 | 292 | 3.0 | 8.0 | 0.00 | 0.00 | 0.00 | 34 | 1003.3 |
| 20260503193006 | 70 | 307 | 2.0 | 6.0 | 0.00 | 0.00 | 0.00 | 33 | 1003.3 |
| 20260503191505 | 70 | 212 | 3.0 | 7.0 | 0.00 | 0.00 | 0.00 | 35 | 1003.3 |
| 20260503191006 | 70 | 293 | 4.0 | 9.0 | 0.00 | 0.00 | 0.00 | 35 | 1003.3 |
| 20260503190506 | 70 | 296 | 3.0 | 7.0 | 0.00 | 0.00 | 0.00 | 37 | 1003.3 |
| 20260503190006 | 70 | 266 | 3.0 | 9.0 | 0.00 | 0.00 | 0.00 | 36 | 1003.4 |
| 20260503185506 | 69 | 250 | 2.0 | 8.0 | 0.00 | 0.00 | 0.00 | 39 | 1003.3 |
| 20260503185006 | 69 | 256 | 3.0 | 9.0 | 0.00 | 0.00 | 0.00 | 39 | 1003.4 |
| 20260503184506 | 69 | 309 | 3.0 | 10.0 | 0.00 | 0.00 | 0.00 | 37 | 1003.4 |
| 20260503184006 | 69 | 306 | 2.0 | 7.0 | 0.00 | 0.00 | 0.00 | 38 | 1003.5 |
| 20260503183506 | 69 | 313 | 2.0 | 9.0 | 0.00 | 0.00 | 0.00 | 37 | 1003.5 |
| 20260503183006 | 69 | 300 | 5.0 | 12.0 | 0.00 | 0.00 | 0.00 | 38 | 1003.6 |
| 20260503182506 | 69 | 251 | 3.0 | 8.0 | 0.00 | 0.00 | 0.00 | 39 | 1003.5 |
| 20260503182006 | 69 | 277 | 3.0 | 12.0 | 0.00 | 0.00 | 0.00 | 40 | 1003.6 |
| 20260503181506 | 68 | 273 | 3.0 | 7.0 | 0.00 | 0.00 | 0.00 | 40 | 1003.6 |
| 20260503181005 | 68 | 296 | 3.0 | 9.0 | 0.00 | 0.00 | 0.00 | 41 | 1003.7 |
| 20260503180506 | 68 | 295 | 2.0 | 7.0 | 0.00 | 0.00 | 0.00 | 43 | 1003.7 |
| 20260503180005 | 68 | 302 | 4.0 | 7.0 | 0.00 | 0.00 | 0.00 | 40 | 1003.7 |
| 20260503175505 | 68 | 311 | 2.0 | 7.0 | 0.00 | 0.00 | 0.00 | 42 | 1003.7 |
| 20260503174505 | 67 | 302 | 4.0 | 9.0 | 0.00 | 0.00 | 0.00 | 43 | 1003.7 |
| 20260503174006 | 67 | 298 | 3.0 | 6.0 | 0.00 | 0.00 | 0.00 | 41 | 1003.9 |
| 20260503173505 | 67 | 302 | 3.0 | 10.0 | 0.00 | 0.00 | 0.00 | 44 | 1003.9 |
| 20260503173006 | 67 | 298 | 3.0 | 7.0 | 0.00 | 0.00 | 0.00 | 45 | 1003.9 |
| 20260503172006 | 67 | 300 | 3.0 | 9.0 | 0.00 | 0.00 | 0.00 | 44 | 1003.9 |
| 20260503171506 | 66 | 288 | 3.0 | 6.0 | 0.00 | 0.00 | 0.00 | 44 | 1003.9 |
| 20260503171006 | 66 | 306 | 2.0 | 6.0 | 0.00 | 0.00 | 0.00 | 45 | 1003.8 |
| 20260503170506 | 66 | 303 | 4.0 | 7.0 | 0.00 | 0.00 | 0.00 | 44 | 1003.8 |
| 20260503151006 | 63 | 223 | 2.0 | 7.0 | 0.00 | 0.00 | 0.00 | 48 | 1003.6 |
| 20260503150506 | 62 | 154 | 1.0 | 6.0 | 0.00 | 0.00 | 0.00 | 49 | 1003.5 |
| 20260503131006 | 55 | 171 | 6.0 | 10.0 | 0.00 | 0.00 | 0.00 | 52 | 1003.8 |
| 20260503130506 | 54 | 175 | 5.0 | 10.0 | 0.00 | 0.00 | 0.00 | 53 | 1003.7 |
| 20260503110506 | 53 | 177 | 7.0 | 13.0 | 0.00 | 0.00 | 0.00 | 56 | 1003.5 |
| 20260503090505 | 55 | 174 | 6.0 | 10.0 | 0.00 | 0.00 | 0.00 | 50 | 1005.0 |
| 20260503081505 | 56 | 174 | 7.0 | 13.0 | 0.00 | 0.00 | 0.00 | 48 | 1006.4 |
| 20260503081006 | 56 | 177 | 6.0 | 12.0 | 0.00 | 0.00 | 0.00 | 49 | 1006.6 |
| 20260503072505 | 55 | 174 | 5.0 | 7.0 | 0.00 | 0.00 | 0.00 | 50 | 1007.0 |
| 20260503072006 | 55 | 177 | 5.0 | 10.0 | 0.00 | 0.00 | 0.00 | 50 | 1006.8 |
| 20260503071506 | 54 | 157 | 5.0 | 10.0 | 0.00 | 0.00 | 0.00 | 51 | 1006.8 |
| 20260503071006 | 54 | 167 | 6.0 | 9.0 | 0.00 | 0.00 | 0.00 | 51 | 1006.9 |
| 20260503070506 | 54 | 174 | 5.0 | 10.0 | 0.00 | 0.00 | 0.00 | 51 | 1007.0 |
| 20260503055006 | 55 | 174 | 3.0 | 10.0 | 0.00 | 0.00 | 0.00 | 51 | 1007.8 |
| 20260503053506 | 55 | 164 | 5.0 | 9.0 | 0.00 | 0.00 | 0.00 | 50 | 1008.0 |
| 20260503053005 | 55 | 180 | 5.0 | 9.0 | 0.00 | 0.00 | 0.00 | 51 | 1008.2 |
| 20260503052505 | 55 | 174 | 5.0 | 10.0 | 0.00 | 0.00 | 0.00 | 50 | 1008.2 |
| 20260503052006 | 55 | 172 | 4.0 | 10.0 | 0.00 | 0.00 | 0.00 | 51 | 1008.3 |
| 20260503051506 | 55 | 170 | 2.0 | 6.0 | 0.00 | 0.00 | 0.00 | 51 | 1008.3 |
| 20260503051006 | 55 | 160 | 4.0 | 7.0 | 0.00 | 0.00 | 0.00 | 50 | 1008.4 |
| 20260503050006 | 55 | 153 | 2.0 | 6.0 | 0.00 | 0.00 | 0.00 | 52 | 1008.4 |
| 20260503045505 | 55 | 171 | 3.0 | 6.0 | 0.00 | 0.00 | 0.00 | 51 | 1008.4 |
| 20260503045005 | 55 | 172 | 4.0 | 6.0 | 0.00 | 0.00 | 0.00 | 51 | 1008.5 |
| 20260503044506 | 55 | 159 | 2.0 | 5.0 | 0.00 | 0.00 | 0.00 | 54 | 1008.5 |
| 20260503044006 | 55 | 159 | 1.0 | 3.0 | 0.00 | 0.00 | 0.00 | 53 | 1008.6 |
| 20260503043505 | 55 | 159 | 1.0 | 2.0 | 0.00 | 0.00 | 0.00 | 54 | 1008.6 |
| 20260503043005 | 55 | 159 | 0.0 | 2.0 | 0.00 | 0.00 | 0.00 | 53 | 1008.7 |
| 20260503042506 | 55 | 159 | 0.0 | 1.0 | 0.00 | 0.00 | 0.00 | 52 | 1008.8 |
| 20260503041505 | 56 | 159 | 0.0 | 1.0 | 0.00 | 0.00 | 0.00 | 50 | 1009.0 |
| 20260503040506 | 56 | 159 | 0.0 | 2.0 | 0.00 | 0.00 | 0.00 | 50 | 1009.2 |
| 20260503040006 | 56 | 159 | 0.0 | 1.0 | 0.00 | 0.00 | 0.00 | 49 | 1009.3 |
| 20260503035006 | 56 | 159 | 1.0 | 2.0 | 0.00 | 0.00 | 0.00 | 50 | 1009.4 |
| 20260503034505 | 56 | 159 | 1.0 | 2.0 | 0.00 | 0.00 | 0.00 | 50 | 1009.5 |
| 20260503034006 | 56 | 159 | 0.0 | 1.0 | 0.00 | 0.00 | 0.00 | 47 | 1009.5 |
| 20260503033505 | 57 | 159 | 0.0 | 1.0 | 0.00 | 0.00 | 0.00 | 48 | 1009.6 |
| 20260503033006 | 57 | 159 | 0.0 | 1.0 | 0.00 | 0.00 | 0.00 | 47 | 1009.6 |
| 20260503032506 | 57 | 159 | 0.0 | 0.0 | 0.00 | 0.00 | 0.00 | 46 | 1009.7 |
| 20260503032006 | 57 | 159 | 0.0 | 1.0 | 0.00 | 0.00 | 0.00 | 45 | 1009.8 |
| 20260503031506 | 58 | 159 | 0.0 | 0.0 | 0.00 | 0.00 | 0.00 | 46 | 1009.9 |
| 20260503031006 | 58 | 159 | 0.0 | 1.0 | 0.00 | 0.00 | 0.00 | 45 | 1009.9 |
| 20260503030506 | 58 | 159 | 1.0 | 2.0 | 0.00 | 0.00 | 0.00 | 45 | 1010.0 |
| 20260503030005 | 58 | 159 | 1.0 | 3.0 | 0.00 | 0.00 | 0.00 | 45 | 1010.0 |
| 20260503025505 | 58 | 159 | 1.0 | 3.0 | 0.00 | 0.00 | 0.00 | 45 | 1010.0 |
| 20260503025006 | 58 | 159 | 1.0 | 3.0 | 0.00 | 0.00 | 0.00 | 45 | 1010.1 |
| 20260503023506 | 58 | 159 | 2.0 | 5.0 | 0.00 | 0.00 | 0.00 | 44 | 1010.1 |
| 20260503021506 | 59 | 159 | 3.0 | 7.0 | 0.00 | 0.00 | 0.00 | 42 | 1010.3 |
| 20260503021005 | 59 | 165 | 3.0 | 7.0 | 0.00 | 0.00 | 0.00 | 43 | 1010.3 |
| 20260503020506 | 59 | 164 | 2.0 | 5.0 | 0.00 | 0.00 | 0.00 | 43 | 1010.3 |
| 20260503020006 | 59 | 161 | 2.0 | 5.0 | 0.00 | 0.00 | 0.00 | 43 | 1010.2 |
| 20260503015505 | 59 | 161 | 2.0 | 6.0 | 0.00 | 0.00 | 0.00 | 43 | 1010.1 |
| 20260503015006 | 59 | 179 | 2.0 | 3.0 | 0.00 | 0.00 | 0.00 | 43 | 1010.1 |
| 20260503014506 | 59 | 176 | 2.0 | 5.0 | 0.00 | 0.00 | 0.00 | 43 | 1010.1 |
| 20260503014007 | 59 | 164 | 3.0 | 6.0 | 0.00 | 0.00 | 0.00 | 44 | 1010.2 |
| 20260503013505 | 59 | 182 | 1.0 | 3.0 | 0.00 | 0.00 | 0.00 | 46 | 1010.2 |
| 20260503012006 | 60 | 182 | 0.0 | 1.0 | 0.00 | 0.00 | 0.00 | 42 | 1010.1 |
| 20260503011506 | 60 | 182 | 0.0 | 2.0 | 0.00 | 0.00 | 0.00 | 42 | 1010.2 |
| 20260503011006 | 60 | 182 | 2.0 | 3.0 | 0.00 | 0.00 | 0.00 | 41 | 1010.2 |
| 20260503010506 | 60 | 182 | 1.0 | 3.0 | 0.00 | 0.00 | 0.00 | 40 | 1010.3 |
| 20260503005506 | 61 | 182 | 1.0 | 3.0 | 0.00 | 0.00 | 0.00 | 39 | 1010.3 |
| 20260503005005 | 61 | 182 | 1.0 | 3.0 | 0.00 | 0.00 | 0.00 | 40 | 1010.3 |
| 20260503004506 | 61 | 182 | 1.0 | 3.0 | 0.00 | 0.00 | 0.00 | 40 | 1010.4 |
| 20260503004005 | 61 | 182 | 0.0 | 1.0 | 0.00 | 0.00 | 0.00 | 40 | 1010.4 |
| 20260503003506 | 61 | 182 | 1.0 | 2.0 | 0.00 | 0.00 | 0.00 | 38 | 1010.5 |
| 20260503003007 | 61 | 182 | 1.0 | 2.0 | 0.00 | 0.00 | 0.00 | 38 | 1010.5 |
| 20260503002506 | 61 | 182 | 1.0 | 2.0 | 0.00 | 0.00 | 0.00 | 38 | 1010.5 |
| 20260503002006 | 62 | 182 | 1.0 | 2.0 | 0.00 | 0.00 | 0.00 | 36 | 1010.6 |
| 20260503001505 | 62 | 182 | 2.0 | 5.0 | 0.00 | 0.00 | 0.00 | 37 | 1010.6 |
| 20260503001006 | 62 | 178 | 2.0 | 3.0 | 0.00 | 0.00 | 0.00 | 36 | 1010.6 |
| 20260503000505 | 62 | 198 | 2.0 | 3.0 | 0.00 | 0.00 | 0.00 | 37 | 1010.7 |
| 20260502235506 | 62 | 171 | 1.0 | 3.0 | 0.00 | 0.00 | 0.00 | 36 | 1010.9 |
| 20260502235006 | 62 | 171 | 2.0 | 5.0 | 0.00 | 0.00 | 0.00 | 36 | 1010.9 |
| 20260502234505 | 62 | 167 | 3.0 | 6.0 | 0.00 | 0.00 | 0.00 | 36 | 1010.9 |
| 20260502234006 | 63 | 198 | 2.0 | 5.0 | 0.00 | 0.00 | 0.00 | 34 | 1010.9 |
| 20260502233006 | 62 | 250 | 1.0 | 6.0 | 0.00 | 0.00 | 0.00 | 35 | 1011.0 |
| 20260502232006 | 62 | 134 | 2.0 | 3.0 | 0.00 | 0.00 | 0.00 | 35 | 1011.1 |
| 20260502231505 | 63 | 205 | 1.0 | 3.0 | 0.00 | 0.00 | 0.00 | 38 | 1011.1 |
| 20260502231005 | 63 | 180 | 1.0 | 3.0 | 0.00 | 0.00 | 0.00 | 38 | 1011.2 |
| 20260502230506 | 63 | 178 | 2.0 | 3.0 | 0.00 | 0.00 | 0.00 | 34 | 1011.3 |
| 20260502230005 | 63 | 211 | 2.0 | 3.0 | 0.00 | 0.00 | 0.00 | 34 | 1011.4 |
| 20260502225506 | 63 | 281 | 2.0 | 7.0 | 0.00 | 0.00 | 0.00 | 34 | 1011.4 |
| 20260502224506 | 63 | 189 | 2.0 | 6.0 | 0.00 | 0.00 | 0.00 | 33 | 1011.5 |
| 20260502224005 | 63 | 184 | 2.0 | 7.0 | 0.00 | 0.00 | 0.00 | 35 | 1011.6 |
| 20260502223505 | 63 | 168 | 3.0 | 7.0 | 0.00 | 0.00 | 0.00 | 35 | 1011.6 |
| 20260502223006 | 63 | 159 | 2.0 | 6.0 | 0.00 | 0.00 | 0.00 | 35 | 1011.6 |
| 20260502222505 | 63 | 182 | 2.0 | 8.0 | 0.00 | 0.00 | 0.00 | 34 | 1011.7 |
| 20260502221005 | 64 | 205 | 2.0 | 8.0 | 0.00 | 0.00 | 0.00 | 33 | 1011.8 |